Weather in Chervona Dibrovka

Russia / Belgorod Oblast     50°31′33″N   37°17′03″E
temp.,
°C
wind,
m/s
gust,
m/s
humid.,
%
clouds,
%
prec.,
mm/h
press.,
hPa
HPBL,
m
25 october, mon
mon2500:00+3nnw59735 0.0 1025482
03:00+1nnw510765 0.0 1027408
06:00−1nnw49845 0.0 1029315
09:00+1n47745 0.0 1031424
12:00+5n45465 0.0 10321091
15:00+5nnw444193 0.0 10321157
18:00+2nnw22525 0.0 103317
21:00+1nnw11563 0.0 103310
26 october, tue
tue2600:000sw11602 0.0 103410
03:000wsw22640 0.0 103412
06:00−1sw22675 0.0 103317
09:00+1sw235779 0.0 1034145
12:00+6sw344095 0.0 1033640
15:00+8sw45335 0.0 1030828
18:00+4ssw33425 0.0 103023
21:00+3ssw334638 0.0 103030
27 october, wed
wed2700:00+2ssw32495 0.0 103026
03:00+1ssw33495 0.0 103032
06:000ssw33505 0.0 103038
09:00+2ssw37410 0.0 1029202
12:00+8sw57290 0.0 1028618
15:00+10sw56240 0.0 1026803
18:00+6sw34320 0.0 102641
21:00+4wsw333961 0.0 102740
28 october, thu
thu2800:00+3wsw334593 0.0 102647
03:00+2w335473 0.0 102641
06:00+2w2263100 0.0 102728
09:00+4wsw2464100 0.0 1027124
12:00+9w345499 0.0 1026444
15:00+12w45495 0.0 1025760
18:00+8wsw35675 0.0 102575
21:00+7w3974100 0.0 1025197
29 october, fri
fri2900:00+7w497690 0.0 1024268
03:00+7w497889 0.0 1024263
06:00+7w3779100 0.0 1024216
09:00+8wnw3680100 0.0 1025210
12:00+9wnw2480100 0.2 1026215
15:00+9nw2487100 0.3 1026179
18:00+9nnw2289100 0.0 102769
21:00+9ne2289100 0.0 102732